La Vinya d'en Daniel





Hora UTC 15:50
Temperatura 11.9 ºC
Humedad 74.0 %
Presión 1014.2 hPa
Pluja 0.0 mm
Velocidad viento 0.0 km/h
Dirección viento N

Datos diarios 2021-12-04



Hora UTC (invierno +1h; verano +2h)
Temperatura (ºC) Humedad (%) Presión (hPa) Velocidad viento (km/h) Precipitación (mm)
Hora UTC Aire Humedad Presión Vel. Dir. Vel. Max Dir. Intent. máx 5 min.
00:05 6.4 83.0 1020.3 0.0 S 0.0 0.0
00:10 6.4 83.0 1020.1 0.0 NNW 6.4 0.0
00:15 6.7 83.0 1019.9 0.0 W 8.0 0.0
00:20 7.3 82.0 1020.1 1.6 N 12.9 0.0
00:25 7.8 81.0 1020.0 4.8 N 12.9 0.0
00:30 8.1 80.0 1019.8 0.0 N 9.7 0.0
00:35 8.3 80.0 1019.4 4.8 N 9.7 0.0
00:40 8.4 79.0 1019.3 8.0 N 9.7 0.0
00:45 8.6 79.0 1019.4 0.0 N 8.0 0.0
00:50 8.7 78.0 1019.3 0.0 N 6.4 0.0
00:55 8.8 78.0 1019.0 0.0 N 1.6 0.0
01:00 8.8 78.0 1018.9 0.0 N 0.0 0.0
01:05 8.8 78.0 1018.8 0.0 N 8.0 0.0
01:10 8.9 77.0 1018.9 0.0 N 14.5 0.0
01:15 9.0 77.0 1018.9 0.0 N 14.5 0.0
01:20 9.0 77.0 1018.8 0.0 N 0.0 0.0
01:25 9.0 76.0 1018.9 1.6 N 6.4 0.0
01:30 8.9 76.0 1018.9 0.0 N 9.7 0.0
01:35 8.9 76.0 1018.8 0.0 N 9.7 0.0
01:40 8.9 76.0 1018.9 0.0 N 4.8 0.0
01:45 8.9 76.0 1018.9 0.0 N 4.8 0.0
01:50 8.9 76.0 1018.9 0.0 N 4.8 0.0
01:55 8.9 76.0 1018.9 0.0 N 0.0 0.0
02:00 8.8 76.0 1018.8 0.0 N 0.0 0.0
02:05 8.8 75.0 1018.6 0.0 N 0.0 0.0
02:10 8.9 75.0 1018.7 0.0 N 3.2 0.0
02:15 8.8 75.0 1018.8 0.0 N 8.0 0.0
02:20 8.8 75.0 1018.6 0.0 N 8.0 0.0
02:25 8.7 75.0 1018.7 0.0 N 0.0 0.0
02:30 8.7 75.0 1018.5 0.0 N 0.0 0.0
02:35 8.7 75.0 1018.4 0.0 N 0.0 0.0
02:40 8.8 74.0 1018.3 4.8 N 8.0 0.0
02:45 8.9 74.0 1018.2 3.2 N 9.7 0.0
02:50 9.0 74.0 1018.2 0.0 N 9.7 0.0
02:55 8.9 75.0 1018.2 4.8 N 17.7 0.0
03:00 8.9 75.0 1018.1 9.7 N 19.3 0.0
03:05 8.9 76.0 1018.0 9.7 N 20.9 0.0
03:10 8.8 77.0 1017.9 9.7 N 20.9 0.0
03:15 8.6 78.0 1018.0 4.8 N 20.9 0.0
03:15 8.5 78.0 1018.1 9.7 N 20.9 0.0
03:25 8.4 78.0 1018.0 6.4 N 20.9 0.0
03:25 8.4 78.0 1018.0 8.0 N 20.9 0.0
03:35 8.4 78.0 1018.1 0.0 N 20.9 0.0
03:35 8.3 78.0 1017.9 0.0 N 20.9 0.0
03:45 8.2 80.0 1018.1 16.1 N 19.3 0.0
03:45 8.2 80.0 1018.0 14.5 N 24.1 0.0
03:50 8.2 80.0 1017.9 0.0 N 24.1 0.0
03:55 8.1 80.0 1017.8 0.0 N 14.5 0.0
04:00 8.1 81.0 1017.7 0.0 N 9.7 0.0
04:05 8.1 81.0 1017.6 1.6 N 9.7 0.0
04:10 8.0 81.0 1017.7 0.0 N 9.7 0.0
04:15 8.0 82.0 1017.7 0.0 N 16.1 0.0
04:20 8.0 82.0 1017.6 8.0 N 16.1 0.0
04:25 8.0 82.0 1017.6 0.0 N 8.0 0.0
04:30 7.9 82.0 1017.6 4.8 N 17.7 0.0
04:35 7.9 82.0 1017.5 4.8 N 17.7 0.0
04:40 7.8 82.0 1017.4 6.4 N 9.7 0.0
04:45 7.8 83.0 1017.4 14.5 N 19.3 0.0
04:50 7.7 83.0 1017.3 1.6 N 20.9 0.0
04:55 7.7 83.0 1017.1 8.0 N 17.7 0.0
05:00 7.9 83.0 1017.1 0.0 N 14.5 0.0
05:05 7.9 83.0 1017.1 6.4 N 9.7 0.0
05:10 7.9 83.0 1017.1 6.4 N 9.7 0.0
05:15 8.2 83.0 1016.9 0.0 N 14.5 0.0
05:20 8.2 82.0 1016.9 0.0 N 14.5 0.0
05:25 8.1 82.0 1016.9 0.0 N 4.8 0.0
05:30 7.9 82.0 1017.0 0.0 N 9.7 0.0
05:35 7.7 83.0 1016.9 0.0 N 9.7 0.0
05:40 7.6 83.0 1017.0 14.5 N 14.5 0.0
05:45 7.8 83.0 1017.1 1.6 N 14.5 0.0
05:50 7.9 82.0 1017.0 0.0 N 9.7 0.0
05:55 8.1 82.0 1017.0 1.6 N 16.1 0.0
06:00 8.3 81.0 1017.0 4.8 N 16.1 0.0
06:05 8.4 81.0 1017.1 0.0 N 16.1 0.0
06:10 8.2 81.0 1017.0 6.4 N 20.9 0.0
06:15 8.1 82.0 1017.1 1.6 N 20.9 0.0
06:20 8.1 82.0 1017.2 0.0 N 20.9 0.0
06:25 8.0 83.0 1017.2 8.0 N 16.1 0.0
06:30 7.9 83.0 1017.1 0.0 N 20.9 0.0
06:40 7.9 83.0 1017.1 4.8 N 20.9 0.0
06:45 7.9 83.0 1017.1 4.8 N 24.1 0.0
06:50 8.2 83.0 1017.1 0.0 N 27.4 0.0
06:55 8.3 83.0 1017.0 9.7 N 29.0 0.0
07:00 8.5 82.0 1016.8 14.5 N 29.0 0.0
07:05 8.6 82.0 1016.9 30.6 N 30.6 0.0
07:10 8.6 82.0 1016.7 4.8 N 30.6 0.0
07:15 8.6 82.0 1016.7 4.8 N 30.6 0.0
07:20 8.6 82.0 1016.8 14.5 N 40.2 0.0
07:25 8.6 82.0 1016.6 24.1 N 32.2 0.0
07:30 8.6 82.0 1016.5 29.0 N 37.0 0.0
07:35 8.7 82.0 1016.7 6.4 N 37.0 0.0
07:40 8.9 82.0 1016.8 9.7 N 35.4 0.0
07:45 9.0 81.0 1016.8 6.4 N 33.8 0.0
07:50 9.2 81.0 1016.8 14.5 N 27.4 0.0
07:55 9.3 81.0 1016.7 8.0 NW 32.2 0.0
08:00 9.3 80.0 1016.8 6.4 NNW 33.8 0.0
08:05 9.4 80.0 1016.9 12.9 NNW 33.8 0.0
08:10 9.3 81.0 1016.8 29.0 WNW 32.2 0.0
08:15 9.3 80.0 1016.7 14.5 N 32.2 0.0
08:20 9.2 81.0 1016.8 12.9 N 32.2 0.0
08:25 9.1 81.0 1016.7 9.7 NW 32.2 0.0
08:30 9.2 81.0 1016.9 6.4 NNE 32.2 0.0
08:35 9.2 81.0 1017.0 11.3 NE 33.8 0.0
08:40 9.3 81.0 1016.8 19.3 WNW 33.8 0.0
08:45 9.4 81.0 1016.7 8.0 NNW 29.0 0.0
08:50 9.4 81.0 1016.8 8.0 SW 33.8 0.0
08:55 9.6 81.0 1016.6 3.2 W 33.8 0.0
09:00 9.8 81.0 1016.5 22.5 W 32.2 0.0
09:05 9.9 80.0 1016.6 16.1 WNW 27.4 0.0
09:10 10.1 80.0 1016.5 4.8 N 27.4 0.0
09:15 10.2 79.0 1016.3 17.7 N 20.9 0.0
09:20 10.3 79.0 1016.2 8.0 N 24.1 0.0
09:25 10.5 79.0 1016.2 0.0 N 25.7 0.0
09:30 10.9 78.0 1016.1 0.0 N 25.7 0.0
09:35 11.2 77.0 1016.2 4.8 S 9.7 0.0
09:40 11.6 76.0 1016.3 0.0 NW 9.7 0.0
09:45 11.8 74.0 1016.0 0.0 W 14.5 0.0
09:50 12.2 74.0 1016.1 1.6 NNW 14.5 0.0
09:55 12.4 72.0 1016.1 1.6 NNW 25.7 0.0
10:00 12.4 73.0 1015.9 6.4 NW 29.0 0.0
10:05 12.4 72.0 1016.0 19.3 NNW 37.0 0.0
10:10 12.5 72.0 1016.0 17.7 WNW 37.0 0.0
10:15 12.7 72.0 1016.0 9.7 NNE 22.5 0.0
10:20 12.7 72.0 1015.8 4.8 NNE 24.1 0.0
10:25 12.7 71.0 1015.6 4.8 NNE 37.0 0.0
10:30 12.7 71.0 1015.2 11.3 WNW 37.0 0.0
10:35 12.8 72.0 1015.1 3.2 NNW 38.6 0.0
10:35 12.9 71.0 1015.0 9.7 NW 38.6 0.0
10:40 13.1 70.0 1015.0 11.3 NNE 32.2 0.0
10:45 13.2 70.0 1014.9 3.2 NE 32.2 0.0
10:50 13.5 69.0 1014.8 16.1 WSW 22.5 0.0
10:55 13.7 68.0 1014.7 9.7 NW 33.8 0.0
11:00 13.7 69.0 1014.5 12.9 W 30.6 0.0
11:05 13.6 69.0 1014.5 11.3 W 30.6 0.0
11:10 13.1 70.0 1014.6 8.0 N 32.2 0.0
11:15 12.7 71.0 1014.5 8.0 NNW 32.2 0.0
11:20 12.5 71.0 1014.6 4.8 N 30.6 0.0
11:25 12.4 72.0 1014.8 4.8 E 22.5 0.0
11:30 12.2 73.0 1014.8 12.9 N 22.5 0.0
11:35 12.2 73.0 1014.8 1.6 N 19.3 0.0
11:40 12.2 72.0 1015.0 8.0 NW 20.9 0.0
11:45 12.3 73.0 1014.8 4.8 NNW 22.5 0.0
11:50 12.3 72.0 1014.9 16.1 N 22.5 0.0
11:55 12.4 72.0 1015.0 3.2 N 27.4 0.0
12:00 12.5 72.0 1015.0 6.4 WNW 27.4 0.0
12:05 12.6 72.0 1014.9 1.6 N 27.4 0.0
12:10 12.6 72.0 1014.7 0.0 N 27.4 0.0
12:15 12.7 73.0 1014.7 8.0 WNW 20.9 0.0
12:20 12.7 73.0 1014.7 11.3 WNW 22.5 0.0
12:25 12.7 73.0 1014.5 8.0 N 22.5 0.0
12:30 12.6 73.0 1014.6 6.4 NE 25.7 0.0
12:35 12.8 73.0 1014.5 14.5 N 25.7 0.0
12:40 13.3 74.0 1014.1 1.6 WNW 16.1 0.0
12:50 14.0 72.0 1013.9 11.3 SW 16.1 0.0
12:55 14.6 69.0 1013.9 6.4 SSW 16.1 0.0
13:00 15.0 68.0 1013.9 6.4 N 17.7 0.0
13:05 15.1 66.0 1013.8 3.2 N 24.1 0.0
13:10 14.9 66.0 1014.0 16.1 WNW 24.1 0.0
13:15 14.8 67.0 1014.2 8.0 N 24.1 0.0
13:15 14.7 67.0 1014.1 12.9 WNW 17.7 0.0
13:25 14.3 67.0 1014.1 4.8 NNE 22.5 0.0
13:30 14.0 69.0 1014.1 0.0 N 27.4 0.0
13:35 13.7 69.0 1014.2 14.5 WNW 27.4 0.0
13:40 13.4 71.0 1014.0 6.4 N 24.1 0.0
13:45 13.1 71.0 1014.1 6.4 NE 17.7 0.0
13:50 12.9 72.0 1014.0 0.0 N 17.7 0.0
13:55 12.8 73.0 1014.1 0.0 NNE 4.8 0.0
14:00 12.6 72.0 1014.0 4.8 N 14.5 0.0
14:05 12.5 72.0 1014.0 0.0 N 16.1 0.0
14:10 12.3 73.0 1014.0 19.3 NW 20.9 0.0
14:15 12.2 73.0 1014.0 0.0 N 20.9 0.0
14:20 12.2 73.0 1014.1 8.0 N 20.9 0.0
14:25 12.1 74.0 1014.1 3.2 N 19.3 0.0
14:30 12.0 74.0 1014.2 6.4 N 24.1 0.0
14:35 11.9 74.0 1014.3 6.4 N 24.1 0.0
14:40 11.9 74.0 1014.0 17.7 N 19.3 0.0
14:45 11.9 74.0 1014.0 0.0 N 20.9 0.0
14:50 11.9 74.0 1014.2 0.0 NE 17.7 0.0
14:55 11.9 74.0 1014.2 0.0 WNW 22.5 0.0
15:00 11.9 74.0 1014.0 0.0 NNW 22.5 0.0
15:05 11.8 75.0 1014.1 0.0 WNW 12.9 0.0
15:10 11.8 74.0 1014.3 0.0 N 8.0 0.0
15:15 11.9 73.0 1014.2 0.0 WNW 6.4 0.0
15:20 11.9 74.0 1014.2 0.0 NE 3.2 0.0
15:25 11.9 74.0 1014.2 0.0 W 6.4 0.0
15:30 11.9 74.0 1014.2 6.4 WNW 8.0 0.0
15:35 11.9 74.0 1014.3 0.0 NNW 8.0 0.0
15:40 11.9 74.0 1014.1 4.8 WNW 4.8 0.0
15:45 11.9 74.0 1014.1 0.0 WNW 6.4 0.0
15:50 11.9 74.0 1014.2 0.0 N 3.2 0.0
Máxima 15.1 83.0 1020.3 30.6 N 40.2 0.0
Mínima 5.1 66.0 1013.8
Total 0.0